Time,TemperatureF,DewpointF,PressureIn,WindDirection,WindDirectionDegrees,WindSpeedMPH,WindSpeedGustMPH,Humidity,HourlyPrecipIn,Conditions,Clouds,dailyrainin,SoftwareType,DateUTC
2013-01-26 00:01:00,36.0,36.0,-100.00,SSE,154,2.0,4.0,100,0.04,,,-99.99,,2013-01-26 07:01:00,
2013-01-26 00:11:00,36.0,36.0,-100.00,ESE,120,1.0,2.0,100,0.04,,,-99.99,,2013-01-26 07:11:00,
2013-01-26 00:21:00,36.0,36.0,-100.00,ESE,123,0.0,1.0,100,0.04,,,-99.99,,2013-01-26 07:21:00,
2013-01-26 00:33:00,36.0,36.0,-100.00,ESE,123,0.0,1.0,100,0.04,,,-99.99,,2013-01-26 07:33:00,
2013-01-26 00:41:00,36.0,36.0,-100.00,SE,134,2.0,2.0,100,0.08,,,-99.99,,2013-01-26 07:41:00,
2013-01-26 00:51:00,36.0,36.0,-100.00,ESE,120,0.0,0.0,100,0.00,,,-99.99,,2013-01-26 07:51:00,
2013-01-26 01:02:00,36.0,36.0,-100.00,ESE,120,0.0,0.0,100,0.00,,,-99.99,,2013-01-26 08:02:00,
2013-01-26 01:11:00,36.0,36.0,-100.00,ESE,116,0.0,1.0,100,0.00,,,-99.99,,2013-01-26 08:11:00,
2013-01-26 01:21:00,36.0,36.0,-100.00,ESE,104,1.0,2.0,100,0.08,,,-99.99,,2013-01-26 08:21:00,
2013-01-26 01:31:00,36.0,36.0,-100.00,ESE,104,1.0,2.0,100,0.08,,,-99.99,,2013-01-26 08:31:00,
2013-01-26 01:41:00,36.0,36.0,-100.00,ESE,119,0.0,2.0,100,0.04,,,-99.99,,2013-01-26 08:41:00,
2013-01-26 01:53:00,36.0,36.0,-100.00,SSE,155,0.0,1.0,100,0.04,,,-99.99,,2013-01-26 08:53:00,
2013-01-26 02:01:00,36.0,36.0,-100.00,SSE,155,0.0,1.0,100,0.04,,,-99.99,,2013-01-26 09:01:00,
2013-01-26 02:11:00,36.0,36.0,-100.00,South,185,0.0,1.0,100,0.04,,,-99.99,,2013-01-26 09:11:00,
2013-01-26 02:22:00,36.0,36.0,-100.00,NW,308,2.0,3.0,100,0.00,,,-99.99,,2013-01-26 09:22:00,
2013-01-26 02:31:00,36.0,36.0,-100.00,NW,308,2.0,3.0,100,0.00,,,-99.99,,2013-01-26 09:31:00,
2013-01-26 02:42:00,35.0,35.0,-100.00,NW,308,0.0,1.0,100,0.00,,,-99.99,,2013-01-26 09:42:00,
2013-01-26 02:52:00,35.0,35.0,-100.00,NW,308,0.0,1.0,100,0.00,,,-99.99,,2013-01-26 09:52:00,
2013-01-26 03:01:00,35.0,35.0,-100.00,NW,308,0.0,1.0,100,0.00,,,-99.99,,2013-01-26 10:01:00,
2013-01-26 03:11:00,35.0,35.0,-100.00,West,272,1.0,1.0,100,0.08,,,-99.99,,2013-01-26 10:11:00,
2013-01-26 03:21:00,36.0,36.0,-100.00,ESE,119,0.0,0.0,100,0.04,,,-99.99,,2013-01-26 10:21:00,
2013-01-26 03:31:00,36.0,36.0,-100.00,ESE,119,0.0,0.0,100,0.04,,,-99.99,,2013-01-26 10:31:00,
2013-01-26 03:42:00,35.0,35.0,-100.00,East,89,1.0,1.0,100,0.00,,,-99.99,,2013-01-26 10:42:00,
2013-01-26 03:52:00,36.0,36.0,-100.00,SE,126,1.0,2.0,100,0.04,,,-99.99,,2013-01-26 10:52:00,
2013-01-26 04:01:00,36.0,36.0,-100.00,SE,126,1.0,2.0,100,0.04,,,-99.99,,2013-01-26 11:01:00,
2013-01-26 04:12:00,35.0,35.0,-100.00,North,350,0.0,1.0,100,0.04,,,-99.99,,2013-01-26 11:12:00,
2013-01-26 04:22:00,36.0,36.0,-100.00,East,96,0.0,1.0,100,0.08,,,-99.99,,2013-01-26 11:22:00,
2013-01-26 04:32:00,36.0,36.0,-100.00,East,96,0.0,1.0,100,0.08,,,-99.99,,2013-01-26 11:32:00,
2013-01-26 04:42:00,35.0,35.0,-100.00,NNE,18,1.0,2.0,100,0.04,,,-99.99,,2013-01-26 11:42:00,
2013-01-26 04:52:00,35.0,35.0,-100.00,SSE,151,3.0,4.0,100,0.31,,,-99.99,,2013-01-26 11:52:00,
2013-01-26 05:01:00,35.0,35.0,-100.00,SSE,151,3.0,4.0,100,0.31,,,-99.99,,2013-01-26 12:01:00,
2013-01-26 05:12:00,36.0,36.0,-100.00,ESE,117,2.0,3.0,100,0.04,,,-99.99,,2013-01-26 12:12:00,
2013-01-26 05:22:00,36.0,36.0,-100.00,NNW,337,0.0,1.0,100,0.08,,,-99.99,,2013-01-26 12:22:00,
2013-01-26 05:33:00,36.0,36.0,-100.00,NNW,337,0.0,1.0,100,0.08,,,-99.99,,2013-01-26 12:33:00,
2013-01-26 05:42:00,36.0,36.0,-100.00,SSE,152,1.0,3.0,100,0.08,,,-99.99,,2013-01-26 12:42:00,
2013-01-26 05:53:00,35.0,35.0,-100.00,SSE,165,1.0,2.0,100,0.08,,,-99.99,,2013-01-26 12:53:00,
2013-01-26 06:02:00,35.0,35.0,-100.00,SSE,165,1.0,2.0,100,0.08,,,-99.99,,2013-01-26 13:02:00,
2013-01-26 06:12:00,35.0,35.0,-100.00,SSE,151,2.0,2.0,100,0.08,,,-99.99,,2013-01-26 13:12:00,
2013-01-26 06:22:00,36.0,36.0,-100.00,SW,215,0.0,1.0,100,0.04,,,-99.99,,2013-01-26 13:22:00,
2013-01-26 06:32:00,36.0,36.0,-100.00,SW,215,0.0,1.0,100,0.04,,,-99.99,,2013-01-26 13:32:00,
2013-01-26 06:42:00,36.0,36.0,-100.00,WNW,298,0.0,0.0,100,0.00,,,-99.99,,2013-01-26 13:42:00,
2013-01-26 06:53:00,35.0,35.0,-100.00,ESE,117,1.0,3.0,100,0.04,,,-99.99,,2013-01-26 13:53:00,
2013-01-26 07:02:00,35.0,35.0,-100.00,ESE,117,1.0,3.0,100,0.04,,,-99.99,,2013-01-26 14:02:00,
2013-01-26 07:11:00,35.0,35.0,-100.00,NW,305,0.0,0.0,100,0.04,,,-99.99,,2013-01-26 14:11:00,
2013-01-26 07:21:00,36.0,36.0,-100.00,East,88,2.0,3.0,100,0.00,,,-99.99,,2013-01-26 14:21:00,
2013-01-26 07:31:00,36.0,36.0,-100.00,East,88,2.0,3.0,100,0.00,,,-99.99,,2013-01-26 14:31:00,
2013-01-26 07:42:00,35.0,35.0,-100.00,ESE,104,0.0,2.0,100,0.04,,,-99.99,,2013-01-26 14:42:00,
2013-01-26 07:53:00,35.0,35.0,-100.00,NNE,27,0.0,0.0,100,0.04,,,-99.99,,2013-01-26 14:53:00,
2013-01-26 08:02:00,35.0,35.0,-100.00,NNE,27,0.0,0.0,100,0.04,,,-99.99,,2013-01-26 15:02:00,
2013-01-26 08:12:00,36.0,36.0,-100.00,SSW,206,1.0,2.0,100,0.00,,,-99.99,,2013-01-26 15:12:00,
2013-01-26 08:22:00,35.0,35.0,-100.00,SSW,198,1.0,2.0,100,0.55,,,-99.99,,2013-01-26 15:22:00,
2013-01-26 08:32:00,35.0,35.0,-100.00,SSW,198,1.0,2.0,100,0.55,,,-99.99,,2013-01-26 15:32:00,
2013-01-26 08:42:00,36.0,36.0,-100.00,SE,126,2.0,3.0,100,0.00,,,-99.99,,2013-01-26 15:42:00,
2013-01-26 08:52:00,36.0,36.0,-100.00,SSE,147,1.0,2.0,100,0.08,,,-99.99,,2013-01-26 15:52:00,
2013-01-26 09:01:00,36.0,36.0,-100.00,SSE,147,1.0,2.0,100,0.08,,,-99.99,,2013-01-26 16:01:00,
2013-01-26 09:12:00,36.0,36.0,-100.00,SE,127,1.0,2.0,100,0.31,,,-99.99,,2013-01-26 16:12:00,
2013-01-26 09:21:00,36.0,36.0,-100.00,SE,127,1.0,2.0,100,0.31,,,-99.99,,2013-01-26 16:21:00,
2013-01-26 09:31:00,36.0,36.0,-100.00,SE,127,1.0,2.0,100,0.31,,,-99.99,,2013-01-26 16:31:00,
2013-01-26 09:42:00,36.0,36.0,-100.00,WSW,257,0.0,1.0,100,0.00,,,-99.99,,2013-01-26 16:42:00,
2013-01-26 09:53:00,36.0,36.0,-100.00,NNE,13,1.0,1.0,100,0.00,,,-99.99,,2013-01-26 16:53:00,
2013-01-26 10:03:00,36.0,36.0,-100.00,NNE,13,1.0,1.0,100,0.00,,,-99.99,,2013-01-26 17:03:00,
2013-01-26 10:12:00,36.0,36.0,-100.00,SE,130,1.0,2.0,100,0.08,,,-99.99,,2013-01-26 17:12:00,
2013-01-26 10:22:00,36.0,36.0,-100.00,NNE,27,0.0,0.0,100,0.00,,,-99.99,,2013-01-26 17:22:00,
2013-01-26 10:32:00,36.0,36.0,-100.00,NNE,27,0.0,0.0,100,0.00,,,-99.99,,2013-01-26 17:32:00,
2013-01-26 10:42:00,36.0,36.0,-100.00,WSW,246,0.0,0.0,100,0.00,,,-99.99,,2013-01-26 17:42:00,
2013-01-26 10:53:00,36.0,36.0,-100.00,SE,130,0.0,1.0,100,0.04,,,-99.99,,2013-01-26 17:53:00,
2013-01-26 11:02:00,36.0,36.0,-100.00,SE,130,0.0,1.0,100,0.04,,,-99.99,,2013-01-26 18:02:00,
2013-01-26 11:11:00,36.0,36.0,-100.00,NW,315,0.0,1.0,100,0.00,,,-99.99,,2013-01-26 18:11:00,
2013-01-26 11:22:00,37.0,37.0,-100.00,ENE,62,0.0,0.0,100,0.08,,,-99.99,,2013-01-26 18:22:00,
2013-01-26 11:32:00,37.0,37.0,-100.00,ENE,62,0.0,0.0,100,0.08,,,-99.99,,2013-01-26 18:32:00,
2013-01-26 11:41:00,37.0,37.0,-100.00,South,189,0.0,1.0,100,0.04,,,-99.99,,2013-01-26 18:41:00,
2013-01-26 11:52:00,37.0,37.0,-100.00,SSE,154,2.0,3.0,100,0.00,,,-99.99,,2013-01-26 18:52:00,
2013-01-26 12:02:00,37.0,37.0,-100.00,SSE,154,2.0,3.0,100,0.00,,,-99.99,,2013-01-26 19:02:00,
2013-01-26 12:11:00,37.0,37.0,-100.00,South,178,0.0,0.0,100,0.00,,,-99.99,,2013-01-26 19:11:00,
2013-01-26 12:22:00,37.0,37.0,-100.00,South,185,1.0,2.0,100,0.00,,,-99.99,,2013-01-26 19:22:00,
2013-01-26 12:32:00,37.0,37.0,-100.00,South,185,1.0,2.0,100,0.00,,,-99.99,,2013-01-26 19:32:00,
2013-01-26 12:42:00,37.0,37.0,-100.00,South,184,1.0,4.0,100,0.12,,,-99.99,,2013-01-26 19:42:00,
2013-01-26 12:52:00,35.0,35.0,-100.00,ENE,65,0.0,1.0,100,0.28,,,-99.99,,2013-01-26 19:52:00,
2013-01-26 13:02:00,35.0,35.0,-100.00,ENE,65,0.0,1.0,100,0.28,,,-99.99,,2013-01-26 20:02:00,
2013-01-26 13:11:00,35.0,35.0,-100.00,SE,133,0.0,0.0,100,0.04,,,-99.99,,2013-01-26 20:11:00,
2013-01-26 13:21:00,35.0,35.0,-100.00,ENE,78,0.0,1.0,100,0.04,,,-99.99,,2013-01-26 20:21:00,
2013-01-26 13:32:00,35.0,35.0,-100.00,ENE,78,0.0,1.0,100,0.04,,,-99.99,,2013-01-26 20:32:00,
2013-01-26 13:41:00,35.0,35.0,-100.00,SSE,147,3.0,5.0,100,0.04,,,-99.99,,2013-01-26 20:41:00,
2013-01-26 13:52:00,35.0,35.0,-100.00,SSW,209,0.0,1.0,100,0.04,,,-99.99,,2013-01-26 20:52:00,
2013-01-26 14:02:00,35.0,35.0,-100.00,SSW,209,0.0,1.0,100,0.04,,,-99.99,,2013-01-26 21:02:00,
2013-01-26 14:12:00,35.0,35.0,-100.00,South,189,0.0,1.0,100,0.08,,,-99.99,,2013-01-26 21:12:00,
2013-01-26 14:22:00,35.0,35.0,-100.00,South,188,0.0,2.0,100,0.08,,,-99.99,,2013-01-26 21:22:00,
2013-01-26 14:31:00,35.0,35.0,-100.00,South,188,0.0,2.0,100,0.08,,,-99.99,,2013-01-26 21:31:00,
2013-01-26 14:42:00,35.0,35.0,-100.00,SE,128,0.0,2.0,100,0.08,,,-99.99,,2013-01-26 21:42:00,
2013-01-26 14:52:00,34.0,34.0,-100.00,WSW,240,0.0,1.0,100,0.08,,,-99.99,,2013-01-26 21:52:00,
2013-01-26 15:01:00,34.0,34.0,-100.00,WSW,240,0.0,1.0,100,0.08,,,-99.99,,2013-01-26 22:01:00,
2013-01-26 15:11:00,34.0,34.0,-100.00,WNW,292,0.0,1.0,100,0.04,,,-99.99,,2013-01-26 22:11:00,
2013-01-26 15:21:00,35.0,35.0,-100.00,NW,322,0.0,2.0,100,0.00,,,-99.99,,2013-01-26 22:21:00,
2013-01-26 15:31:00,35.0,35.0,-100.00,NW,322,0.0,2.0,100,0.00,,,-99.99,,2013-01-26 22:31:00,
2013-01-26 15:41:00,35.0,35.0,-100.00,WSW,253,0.0,2.0,100,0.00,,,-99.99,,2013-01-26 22:41:00,
2013-01-26 15:52:00,36.0,36.0,-100.00,NW,304,0.0,0.0,100,0.00,,,-99.99,,2013-01-26 22:52:00,
2013-01-26 16:01:00,36.0,36.0,-100.00,NW,304,0.0,0.0,100,0.00,,,-99.99,,2013-01-26 23:01:00,
2013-01-26 16:11:00,36.0,36.0,-100.00,WSW,241,0.0,1.0,100,0.00,,,-99.99,,2013-01-26 23:11:00,
2013-01-26 16:21:00,35.0,35.0,-100.00,NW,316,0.0,1.0,100,0.00,,,-99.99,,2013-01-26 23:21:00,
2013-01-26 16:32:00,35.0,35.0,-100.00,NW,316,0.0,1.0,100,0.00,,,-99.99,,2013-01-26 23:32:00,
2013-01-26 16:41:00,35.0,35.0,-100.00,SE,141,0.0,1.0,100,0.00,,,-99.99,,2013-01-26 23:41:00,
2013-01-26 16:52:00,36.0,36.0,-100.00,East,79,1.0,3.0,100,0.00,,,-99.99,,2013-01-26 23:52:00,
2013-01-26 17:01:00,36.0,36.0,-100.00,East,79,1.0,3.0,100,0.00,,,-99.99,,2013-01-27 00:01:00,
2013-01-26 17:11:00,36.0,36.0,-100.00,NNE,20,0.0,1.0,100,0.00,,,-99.99,,2013-01-27 00:11:00,
2013-01-26 17:21:00,36.0,36.0,-100.00,SW,234,0.0,1.0,100,0.00,,,-99.99,,2013-01-27 00:21:00,
2013-01-26 17:31:00,36.0,36.0,-100.00,SW,234,0.0,1.0,100,0.00,,,-99.99,,2013-01-27 00:31:00,
2013-01-26 17:41:00,35.0,35.0,-100.00,SSE,164,0.0,1.0,100,0.00,,,-99.99,,2013-01-27 00:41:00,
2013-01-26 17:52:00,35.0,35.0,-100.00,SSE,162,2.0,3.0,100,0.00,,,-99.99,,2013-01-27 00:52:00,
2013-01-26 18:01:00,35.0,35.0,-100.00,SSE,162,2.0,3.0,100,0.00,,,-99.99,,2013-01-27 01:01:00,
2013-01-26 18:11:00,35.0,35.0,-100.00,ESE,119,3.0,4.0,100,0.04,,,-99.99,,2013-01-27 01:11:00,
2013-01-26 18:22:00,35.0,35.0,-100.00,NW,318,0.0,0.0,100,0.00,,,-99.99,,2013-01-27 01:22:00,
2013-01-26 18:32:00,35.0,35.0,-100.00,NW,318,0.0,0.0,100,0.00,,,-99.99,,2013-01-27 01:32:00,
2013-01-26 18:41:00,35.0,35.0,-100.00,SSE,160,1.0,2.0,100,0.00,,,-99.99,,2013-01-27 01:41:00,
2013-01-26 18:52:00,35.0,35.0,-100.00,SSW,203,0.0,1.0,100,0.04,,,-99.99,,2013-01-27 01:52:00,
2013-01-26 19:01:00,35.0,35.0,-100.00,SSW,203,0.0,1.0,100,0.04,,,-99.99,,2013-01-27 02:01:00,
2013-01-26 19:11:00,35.0,35.0,-100.00,SSE,165,0.0,0.0,100,0.00,,,-99.99,,2013-01-27 02:11:00,
2013-01-26 19:21:00,35.0,35.0,-100.00,WNW,287,0.0,0.0,100,0.00,,,-99.99,,2013-01-27 02:21:00,
2013-01-26 19:31:00,35.0,35.0,-100.00,WNW,287,0.0,0.0,100,0.00,,,-99.99,,2013-01-27 02:31:00,
2013-01-26 19:41:00,35.0,35.0,-100.00,ESE,119,2.0,3.0,100,0.00,,,-99.99,,2013-01-27 02:41:00,
2013-01-26 19:52:00,35.0,35.0,-100.00,North,3,0.0,1.0,100,0.00,,,-99.99,,2013-01-27 02:52:00,
2013-01-26 20:01:00,35.0,35.0,-100.00,North,3,0.0,1.0,100,0.00,,,-99.99,,2013-01-27 03:01:00,
2013-01-26 20:11:00,34.0,34.0,-100.00,NNE,14,0.0,0.0,100,0.00,,,-99.99,,2013-01-27 03:11:00,
2013-01-26 20:21:00,34.0,34.0,-100.00,ESE,120,0.0,2.0,100,0.00,,,-99.99,,2013-01-27 03:21:00,
2013-01-26 20:31:00,34.0,34.0,-100.00,ESE,120,0.0,2.0,100,0.00,,,-99.99,,2013-01-27 03:31:00,
2013-01-26 20:41:00,34.0,34.0,-100.00,ESE,107,1.0,2.0,100,0.00,,,-99.99,,2013-01-27 03:41:00,
2013-01-26 20:52:00,34.0,34.0,-100.00,SSW,206,0.0,0.0,100,0.00,,,-99.99,,2013-01-27 03:52:00,
2013-01-26 21:01:00,34.0,34.0,-100.00,SSW,206,0.0,0.0,100,0.00,,,-99.99,,2013-01-27 04:01:00,
2013-01-26 21:11:00,34.0,34.0,-100.00,SSW,196,0.0,1.0,100,0.00,,,-99.99,,2013-01-27 04:11:00,
2013-01-26 21:21:00,34.0,34.0,-100.00,NW,316,0.0,1.0,100,0.00,,,-99.99,,2013-01-27 04:21:00,
2013-01-26 21:31:00,34.0,34.0,-100.00,NW,316,0.0,1.0,100,0.00,,,-99.99,,2013-01-27 04:31:00,
2013-01-26 21:41:00,34.0,34.0,-100.00,SE,140,1.0,2.0,100,0.00,,,-99.99,,2013-01-27 04:41:00,
2013-01-26 21:52:00,33.0,33.0,-100.00,ESE,104,2.0,2.0,100,0.00,,,-99.99,,2013-01-27 04:52:00,
2013-01-26 22:03:00,33.0,33.0,-100.00,ESE,104,2.0,2.0,100,0.00,,,-99.99,,2013-01-27 05:03:00,
2013-01-26 22:11:00,33.0,33.0,-100.00,ESE,104,2.0,2.0,100,0.00,,,-99.99,,2013-01-27 05:11:00,
2013-01-26 22:22:00,34.0,34.0,-100.00,SSE,165,0.0,1.0,100,0.00,,,-99.99,,2013-01-27 05:22:00,
2013-01-26 22:31:00,34.0,34.0,-100.00,SSE,165,0.0,1.0,100,0.00,,,-99.99,,2013-01-27 05:31:00,
2013-01-26 22:42:00,33.0,33.0,-100.00,South,175,0.0,0.0,100,0.00,,,-99.99,,2013-01-27 05:42:00,
2013-01-26 22:52:00,33.0,33.0,-100.00,SSE,157,3.0,4.0,100,0.00,,,-99.99,,2013-01-27 05:52:00,
2013-01-26 23:01:00,33.0,33.0,-100.00,SSE,157,3.0,4.0,100,0.00,,,-99.99,,2013-01-27 06:01:00,
2013-01-26 23:11:00,33.0,33.0,-100.00,NW,319,0.0,1.0,100,0.00,,,-99.99,,2013-01-27 06:11:00,
2013-01-26 23:21:00,33.0,33.0,-100.00,NW,319,0.0,1.0,100,0.00,,,-99.99,,2013-01-27 06:21:00,
2013-01-26 23:31:00,33.0,33.0,-100.00,NW,319,0.0,1.0,100,0.00,,,-99.99,,2013-01-27 06:31:00,
2013-01-26 23:41:00,34.0,34.0,-100.00,WSW,250,0.0,1.0,100,0.00,,,-99.99,,2013-01-27 06:41:00,
2013-01-26 23:52:00,33.0,33.0,-100.00,NW,323,0.0,1.0,100,0.00,,,-99.99,,2013-01-27 06:52:00,